Regional Weather Roundup
Issued by NWS

Home | Current Version | Previous Version | Text Only | Print | Product List | Glossary On
Versions: 1 2 3 4 5 6 7 8 9 10 11 12 13 14 15 16 17 18 19 20 21 22 23 24 25 26 27
000
ASPQ40 PGUM 190712
RWRPQ
WEATHER ROUNDUP FOR THE MARIANAS AND MICRONESIA
NATIONAL WEATHER SERVICE TIYAN GU
500 PM GSST SAT APR 19 2014

GUZ001>004-190800-
MARIANA ISLANDS-

CITY           SKY/WX    TMP DP  RH WIND       PRES   REMARKS
GUAM AIRPORT   MOSUNNY   84  79  84 SE12      29.75S HX  96
ANDERSEN AFB   PTSUNNY   84  77  79 SE15      29.75S HX  94
ROTA AIRPORT   MOSUNNY   82  77  83 SE12      29.75F HX  91
TINIAN AP      MOSUNNY   82  75  78 E10       29.75S
SAIPAN AP      MOSUNNY   84  75  74 E12       29.76S HX  92

$$

PMZ161-190800-
REPUBLIC OF PALAU-

CITY           SKY/WX    TMP DP  RH WIND       PRES   REMARKS
KOROR AP       CLOUDY    77  77 100 CALM      29.72S
KOROR WSO      CLOUDY    79  77  94 SW3       29.74R

$$

PMZ171>174-190800-
FEDERATED STATES OF MICRONESIA-

CITY           SKY/WX    TMP DP  RH WIND       PRES   REMARKS
YAP AIRPORT    LGT RAIN  79  77  94 CALM      29.71F
CHUUK AP       LGT RAIN  82  77  83 NE8       29.75R HX  91
POHNPEI AP     NOT AVBL
POHNPEI WSO    CLOUDY    84  75  74 E6        29.80S HX  92
KOSRAE AP      NOT AVBL

$$

PMZ181-190800-
REPUBLIC OF THE MARSHALL ISLANDS-

CITY           SKY/WX    TMP DP  RH WIND       PRES   REMARKS
KWAJALEIN AP   CLEAR     82  73  74 E14       29.80R
MAJURO AP      NOT AVBL
MAJURO WSO     CLOUDY    82  75  78 E12       29.77S

$$




USA.gov is the U.S. government's official web portal to all federal, state and local government web resources and services.